This is the latest recevied weather packets stored in our database for station/object K4WCH. If no packets are shown the sender has not sent any weather packets the latest 10 day(s).
| Time | Temp. | Humidity | Pressure | Rain* | Wind** | Luminosity | Snow |
|---|---|---|---|---|---|---|---|
| 1788436644 | 25° C | 99% | 1014.9 hPa | 0 mm | - | 53 W/m² | - |
| 1788436339 | 25° C | 99% | 1014.8 hPa | 0 mm | - | 63 W/m² | - |
| 1788436038 | 25° C | 99% | 1014.9 hPa | 0 mm | - | 48 W/m² | - |
| 1788435735 | 25° C | 99% | 1015 hPa | 0 mm | - | 45 W/m² | - |
| 1788435435 | 25° C | 99% | 1015 hPa | 0 mm | - | 32 W/m² | - |
| 1788435131 | 25° C | 99% | 1015.1 hPa | 0 mm | - | 24 W/m² | - |
| 1788434853 | 24.44° C | 99% | 1014.9 hPa | 0 mm | - | 2 W/m² | - |
| 1788434522 | 24.44° C | 99% | 1014.8 hPa | 0 mm | - | 2 W/m² | - |
| 1788434220 | 24.44° C | 99% | 1014.8 hPa | 0 mm | - | 2 W/m² | - |
| 1788433916 | 24.44° C | 99% | 1014.4 hPa | 0 mm | - | 2 W/m² | - |
| 1788433613 | 24.44° C | 99% | 1014.4 hPa | 0 mm | - | 2 W/m² | - |
| 1788433308 | 24.44° C | 99% | 1014.5 hPa | 0 mm | - | 2 W/m² | - |
| 1788433008 | 25° C | 98% | 1014.3 hPa | 0 mm | - | 0 W/m² | - |
| 1788432703 | 25° C | 98% | 1014.4 hPa | 0 mm | - | 0 W/m² | - |
| 1788432402 | 24.44° C | 98% | 1014.1 hPa | 0 mm | - | 0 W/m² | - |
| 1788432098 | 24.44° C | 98% | 1014.2 hPa | 0 mm | - | 0 W/m² | - |
| 1788431794 | 24.44° C | 98% | 1014 hPa | 0 mm | - | 0 W/m² | - |
| 1788431490 | 24.44° C | 98% | 1014.3 hPa | 0 mm | - | 0 W/m² | - |
| 1788431185 | 24.44° C | 98% | 1013.9 hPa | 0 mm | - | 0 W/m² | - |
| 1788430884 | 24.44° C | 98% | 1013.9 hPa | 0 mm | - | 0 W/m² | - |
| 1788430584 | 24.44° C | 98% | 1013.8 hPa | 0 mm | - | 0 W/m² | - |
| 1788430280 | 24.44° C | 98% | 1013.9 hPa | 0 mm | - | 0 W/m² | - |
| 1788429980 | 24.44° C | 98% | 1013.9 hPa | 0 mm | - | 0 W/m² | - |
| 1788429679 | 23.89° C | 98% | 1013.8 hPa | 0 mm | - | 0 W/m² | - |
| 1788429377 | 24.44° C | 98% | 1013.9 hPa | 0 mm | - | 0 W/m² | - |
* Rain latest hour (hover to see other rain measurements)
** Current wind speed in m/s (hover to see current wind gust speed)